Вернуться в каталог

FENGYUN 1C DEB

АктивенSSO
NORAD 30317·DEBRIS·🇨🇳 China

Запущен May 10, 1999 с Taiyuan Satellite Launch Center

Loading…

Ближайшие Пролёты (ближайшие 24 часа)

TLE

СвежийSource: Space-Track

Эпоха: Sep 14, 2026, 10:18 UTC

1 30317U 99025AAE 26257.42952158  .00000283  00000-0  19468-3 0  9991
2 30317  98.7968 255.2931 0024379 218.9876 140.9536 14.07067562  8875

Отслеживайте FENGYUN 1C DEB в реальном времени с AllMySat

Download on the App Store